Current weather by "City, St" or "zip code"  
 
Advertise Here

Current Conditions: Jacksboro Campbell County Airport, TN

Overcast


63.0 F

Last Updated on Feb 28 2021, 7:55 am EST
Humidity: 88%
Wind Speed: 5.8 G 12.7 mph
Barometer 30.07 in
Dewpoint: 59.0 F
Visibility: 10.00 mi
Precip: --
Heat Index: NA
Wind Chill: 63 F
Current conditions at:

Jacksboro Campbell County Airport, TN (KJAU)

Lat: 36.3341 Lon: 84.163

Local Radar Image active severe weather and emergency alerts image image weather storm and storm spotter reports image weather observation monitoring service image
Local
Radar
Active
Alerts
Storm Reports Obs
Monitoring

Sign-up For Email & Text Message Weather Alert Notification Services


Advertise Here

Observation History for Jacksboro Campbell County Airport, TN


Time Wind
(mph)
Vis
(mi)
Weather Precip (in) Temperature (F) Relative
Humidity
Wind
Chill
(F)
Heat
Index
(F)
Pressure
Air Dwpt altimeter
(in)
sea level
(mb)
Rmks
7:55 am EST 5.8 G 12.7 10.00 Overcast -- 63.0 59.0 88% 63 NA 30.07 M
6:55 am EST SE 9.2 10.00 Overcast -- 61.0 59.0 94% 60 NA 30.07 M
5:55 am EST 5.8 G 11.5 10.00 Overcast -- 61.0 57.2 88% 61 NA 30.07 M
4:55 am EST SE 10.4 10.00 Overcast -- 61.0 57.2 88% 60 NA 30.07 M
3:55 am EST NE 4.6 7.00 Overcast -- 57.0 57.2 100% 57 NA 30.10 M
2:55 am EST NE 4.6 6.00 Fog/Mist -- 57.0 57.2 100% 57 NA 30.10 M
1:55 am EST NE 5.8 8.00 Overcast -- 57.0 57.2 100% 56 NA 30.13 M
12:55 am EST N 5.8 5.00 Fog/Mist -- 57.0 57.2 100% 56 NA 30.15 M
11:55 pm EST E 3.5 2.00 Fog/Mist -- 57.0 57.2 100% NA NA 30.16 M
10:55 pm EST NE 3.5 2.50 Fog/Mist -- 57.0 55.4 94% NA NA 30.18 M
9:55 pm EST E 3.5 2.50 Fog/Mist -- 57.0 57.2 100% NA NA 30.19 M
8:55 pm EST NE 3.5 2.00 Fog/Mist -- 57.0 57.2 100% NA NA 30.17 M
8:35 pm EST N 0.0 1.50 Fog/Mist -- 57.0 57.2 100% NA NA 30.18 M
7:55 pm EST N 0.0 0.25 Fog -- 57.0 57.2 100% NA NA 30.19 M
6:55 pm EST N 0.0 0.50 Fog/Mist -- 57.0 57.2 100% NA NA 30.17 M
5:55 pm EST N 0.0 3.00 Fog/Mist -- 57.0 57.2 100% NA NA 30.16 M
4:55 pm EST N 0.0 6.00 Fog/Mist -- 59.0 57.2 94% NA NA 30.16 M
3:55 pm EST N 0.0 5.00 Fog/Mist -- 57.0 57.2 100% NA NA 30.16 M
2:55 pm EST N 0.0 1.50 Fog/Mist -- 57.0 57.2 100% NA NA 30.16 M
1:55 pm EST N 0.0 3.00 Fog/Mist -- 57.0 57.2 100% NA NA 30.15 M
12:55 pm EST N 0.0 8.00 Overcast -- 57.0 57.2 100% NA NA 30.17 M
11:55 am EST NE 4.6 2.50 Fog/Mist -- 57.0 57.2 100% 57 NA 30.17 M
10:55 am EST N 0.0 4.00 Fog/Mist -- 57.0 55.4 94% NA NA 30.16 M
10:35 am EST N 0.0 6.00 Fog/Mist -- 57.0 55.4 94% NA NA 30.15 M

Regional Weather Observation


Williamsburg-Whitley County Airport, KY (KBYL)

Mostly Cloudy
64.0 F

Scott Municipal Airport, TN (KSCX)

Overcast
61.0 F

Oak Ridge, TN (KOQT)

Fog/Mist
57.0 F

Monticello, Wayne County Airport, KY (KEKQ)

Overcast
65.0 F

Middlesboro, Middlesboro-Bell County Airport, KY (K1A6)

Overcast
62.0 F

Somerset, Somerset-Pulaski County - J.T. Wilson Field Airport, KY (KSME)

Overcast
61.0 F
Advertise Here

Advertise Here